Regional Weather Roundup
Issued by NWS

Home | Current Version | Previous Version | Graphics & Text | Print | Product List | Glossary On
Versions: 1 2 3 4 5 6 7 8 9 10 11 12 13 14 15 16 17 18 19 20 21 22 23 24 25 26 27 28 29 30 31 32 33 34 35 36 37 38 39 40 41 42 43 44 45 46 47 48 49 50
000
ASUS43 KTOP 171208
RWRKS

WEATHER ROUNDUP FOR KANSAS
NATIONAL WEATHER SERVICE GOODLAND KS
700 AM CDT WED SEP 17 2014

NOTE:  "FAIR" INDICATES FEW OR NO CLOUDS BELOW 12,000 FEET WITH NO
SIGNIFICANT WEATHER AND/OR OBSTRUCTIONS TO VISIBILITY.

KSZ001>006-013>018-027>032-041>047-171300-
NORTHWEST KANSAS

CITY           SKY/WX    TMP DP  RH WIND       PRES   REMARKS
GOODLAND       CLEAR     53  49  86 CALM      29.98S
6HR MIN TEMP:  53; 6HR MAX TEMP:  60;

HAYS           CLEAR     57  54  88 CALM      29.91R
HILL CITY      FOG       56  55  97 CALM      29.92S VSB 1/4
6HR MIN TEMP:  52; 6HR MAX TEMP:  60;

RUSSELL        CLEAR     61  60  97 SW8       29.89R
6HR MIN TEMP:  61; 6HR MAX TEMP:  66;

$$

KSZ061>065-074>080-084>089-171300-
SOUTHWEST KANSAS

CITY           SKY/WX    TMP DP  RH WIND       PRES   REMARKS
DODGE CITY     CLEAR     62  59  90 SW10      29.94S
6HR MIN TEMP:  62; 6HR MAX TEMP:  70;

ELKHART          N/A     61  56  84 SW7         N/A
GARDEN CITY    PTCLDY    58  57  97 SW3       29.94S FOG
6HR MIN TEMP:  57; 6HR MAX TEMP:  65;

GREAT BEND     CLEAR     63  61  94 S8        29.91S
LIBERAL        MOCLDY    63  55  77 SW10      29.97F
PRATT          CLEAR     63  61  94 S9        29.93S
$$

KSZ066>073-081>083-090>101-171300-
SOUTHEAST KANSAS

CITY           SKY/WX    TMP DP  RH WIND       PRES   REMARKS
CHANUTE        MOCLDY    69  68  96 SW9       29.91S FOG
6HR MIN TEMP:  63; 6HR MAX TEMP:  69;

COFFEYVILLE    PTCLDY    70  68  93 SW6       29.91S FOG
6HR MIN TEMP:  65; 6HR MAX TEMP:  70;

HUTCHINSON     CLOUDY    68  65  90 S9        29.90S FOG
6HR MIN TEMP:  67; 6HR MAX TEMP:  69;

MEDICINE LODGE   N/A     65  65 100 S5        29.92F
NEWTON         PTCLDY    66  61  82 SW9       29.92S
PARSONS        CLOUDY    69  68  96 S5        29.93R FOG
6HR MIN TEMP:  64; 6HR MAX TEMP:  69;

WICHITA INTL   MOCLDY    67  64  90 S8        29.90F FOG
6HR MIN TEMP:  65; 6HR MAX TEMP:  67;

WICHITA JABRA  CLEAR     68  66  93 S12       29.89F
6HR MIN TEMP:  65; 6HR MAX TEMP:  68;

WICHITA MCCONL CLEAR     66  66 100 S10       29.90F FOG
WINFIELD       CLEAR     68  67  96 S7        29.93F FOG
6HR MIN TEMP:  67; 6HR MAX TEMP:  69;

$$

KSZ007>012-019>026-033>040-048>060-102>105-171300-
NORTHEAST KANSAS

CITY           SKY/WX    TMP DP  RH WIND       PRES   REMARKS
CONCORDIA      CLOUDY    65  65 100 CALM      29.89F FOG
6HR MIN TEMP:  56; 6HR MAX TEMP:  66;

EMPORIA        PTCLDY    65  64  97 SW6       29.88F FOG
6HR MIN TEMP:  63; 6HR MAX TEMP:  65; 6HR PCP: TRACE;

LAWRENCE       CLOUDY    63  62  97 SE6       29.90F FOG
6HR MIN TEMP:  62; 6HR MAX TEMP:  64; 6HR PCP:  0.38;

MANHATTAN      CLOUDY    68  66  93 SW6       29.87F FOG
6HR MIN TEMP:  61; 6HR MAX TEMP:  69;

MARYSVILLE     CLOUDY    63  61  94 E3        29.90F
OLATHE IND     CLOUDY    66  65  96 SE5       29.92R
6HR MIN TEMP:  63; 6HR MAX TEMP:  67; 6HR PCP:  1.34;

OLATHE EXE     CLOUDY    64  64 100 SE6       29.91R
6HR MIN TEMP:  62; 6HR MAX TEMP:  64; 6HR PCP:  1.19;

SALINA         CLEAR     66  64  93 S7        29.88F FOG
6HR MIN TEMP:  66; 6HR MAX TEMP:  69;

TOPEKA BILLARD CLOUDY    65  64  97 CALM      29.90S
6HR MIN TEMP:  64; 6HR MAX TEMP:  66; 6HR PCP:  0.10;

TOPEKA FORBES  CLOUDY    64  62  93 SE6       29.89F FOG
6HR MIN TEMP:  63; 6HR MAX TEMP:  65; 6HR PCP:  0.03;

$$


USA.gov is the U.S. government's official web portal to all federal, state and local government web resources and services.